Skip to main content Skip to accessibility
This website is not compatible with your web browser. You should install a newer browser. If you live in Jersey and need help upgrading call the States of Jersey web team on 440099.
Homegov.je

L'înformâtion et les sèrvices publyis pouor I'Île dé Jèrri

  • Choose the service you want to log in to:

  • gov.je

    Update your notification preferences

  • one.gov.je

    Access government and parish services

  • CAESAR

    Clear goods through customs or claim relief

  • Talentlink

    View or update your States of Jersey job application

CI Airfield TAFs

JERSEY - EGJJ

211702Z 2118/2203 30005KT 9999 FEW006 BKN020 TEMPO 2118/2203 3000 -DZ VCFG BKN004 BKN015 PROB30 TEMPO 2121/2203 0500 FG BKN000=

GUERNSEY - EGJB

211702Z 2118/2203 28006KT 9999 SCT004 BKN015 TEMPO 2118/2203 3000 -DZ VCFG BKN004 PROB30 TEMPO 2118/2203 0500 FG BKN000=

ALDERNEY - EGJA

211702Z 2118/2203 Nil

Back to top
rating button